Regional Weather Roundup
Issued by NWS

Home | Current Version | Previous Version | Text Only | Print | Product List | Glossary On
Versions: 1 2 3 4 5 6 7 8 9 10 11 12 13 14 15 16 17 18 19 20 21 22 23 24 25 26 27 28 29 30 31 32 33 34 35 36 37 38 39 40 41 42 43 44 45 46 47 48 49 50
000
ASUS45 KABQ 291301
RWRNM
WEATHER ROUNDUP FOR NEW MEXICO
NATIONAL WEATHER SERVICE ALBUQUERQUE NM
700 AM MDT SUN MAR 29 2015

NOTE: "FAIR" MEANS FEW OR NO CLOUDS BELOW 12,000 FEET AGL WITH NO
       SIGNIFICANT WEATHER OR OBSTRUCTIONS TO VISION.

      THIS PRODUCT IS RELEASED AS TWO VERSIONS.  ONE VERSION NEAR
      THE TOP OF THE HOUR CONTAINING PRELIMINARY DATA FROM ALBUQUERQUE
      AND OTHER STATIONS.  A FINAL VERSION WITH ADDITIONAL DATA IS
      ISSUED ABOUT 10 MINUTES AFTER THE HOUR.

NMZ501-503-504-510>518-291400-
NORTHWEST PLATEAU/NORTHCENTRAL MOUNTAINS

CITY           SKY/WX    TMP DP  RH WIND       PRES   REMARKS
FARMINGTON     CLEAR     37  21  52 E8        30.21R WCI  31
SANTA FE       CLEAR     36  18  48 NW3       30.23R
TAOS           CLEAR     34  18  51 SE8       30.27R WCI  27
ANGEL FIRE     FAIR      34  20  56 SE3       30.31S

$$
NMZ402-403-502-505>509-291400-
WESTCENTRAL MOUNTAINS/SOUTHWEST MOUNTAINS

CITY           SKY/WX    TMP DP  RH WIND       PRES   REMARKS
GALLUP         CLEAR     34  13  41 NE6       30.30R WCI  29

$$
NMZ407-409-411-412-291400-
SOUTHERN DESERTS

CITY           SKY/WX    TMP DP  RH WIND       PRES   REMARKS
DEMING         CLEAR     43  16  33 CALM      30.18R
ALAMOGORDO     PTCLDY    55   9  15 NE10      30.15R
T OR C         CLEAR     58   3  11 NW14      30.19R

$$
NMZ519>523-291400-
CENTRAL VALLEYS/CENTRAL HIGHLANDS

CITY           SKY/WX    TMP DP  RH WIND       PRES   REMARKS
ALBUQUERQUE    CLEAR     49  14  24 SE6       30.22R
DOUBLE EAGLE   CLEAR     45  16  31 CALM      30.24R
CLINES CORNERS CLEAR     40  15  36 NW15      30.24R WCI  32
BELEN          FAIR      47  14  26 E5        30.22R
SOCORRO        NOT AVBL

$$
NMZ524>526-539-540-291400-
SOUTHCENTRAL MOUNTAINS

CITY           SKY/WX    TMP DP  RH WIND       PRES   REMARKS
RUIDOSO        NOT AVBL

$$
NMZ527>531-291400-
NORTHEAST HIGHLANDS/NORTHEAST PLAINS

CITY           SKY/WX    TMP DP  RH WIND       PRES   REMARKS
LAS VEGAS      CLEAR     45  18  34 E8        30.22R
RATON          PTCLDY    41  20  43 NE9       30.18R
CLAYTON        CLEAR     55  25  31 N16       30.13R

$$
NMZ532>537-291400-
EASTCENTRAL PLAINS

CITY           SKY/WX    TMP DP  RH WIND       PRES   REMARKS
TUCUMCARI      CLEAR     54  23  30 W18       30.05R
CANNON AFB     NOT AVBL
CLOVIS AIRPORT CLEAR     48  27  43 W15       30.04R

$$
NMZ028-029-538-291400-
SOUTHEAST PLAINS

CITY           SKY/WX    TMP DP  RH WIND       PRES   REMARKS
ROSWELL        CLEAR     61  17  18 NW8       30.07R
ARTESIA        PTCLDY    46  27  46 NE7       30.08R
CARLSBAD       CLEAR     51  25  36 NW10      30.06R
HOBBS          CLEAR     41  32  70 W10       30.07R


$$



USA.gov is the U.S. government's official web portal to all federal, state and local government web resources and services.